Location: Newark
(36.0797°N, 3.9744°E)
Time: 14:13:40
(UTC+00:00)

Vanguard 2 Rocket - Pass Details

Date: 11 December 2019
Orbit: 554 x 3326 km, 32.9° (Epoch: 25 January)

Event Time Altitude Azimuth Distance (km) Brightness Sun altitude
Rises 16:54:21 0° 238° (WSW) 7,073 14.0 -5.3°
Reaches altitude 10° 16:59:37 10° 236° (SW) 5,797 12.7 -6.2°
Maximum altitude 17:15:34 58° 163° (SSE) 2,330 9.0 -9.2°
Enters shadow 17:24:39 11° 88° (E) 3,465 9.3 -10.9°
Drops below altitude 10° 17:24:48 10° 87° (E) 3,509 - -10.9°
Sets 17:27:12 0° 83° (E) 4,201 - -11.4°
